GW4240 Weather Reports


Display with metric or nautical units.
time (UTC)temp
F
wind
direction
speed
MPH
gust
MPH
rain 1hr
in
rain 24hr
in
rain mn
in
humidity
%
barometer
mb
20260901111025 53 0 0.0 1.0 0.00 0.00 0.00 96 1008.5
20260901110524 53 297 0.0 1.0 0.00 0.00 0.00 96 1008.5
20260901110047 53 297 0.0 1.0 0.00 0.00 0.00 96 1008.5
20260901105525 53 297 0.0 1.0 0.00 0.00 0.00 96 1008.5
20260901105025 54 297 0.0 1.0 0.00 0.00 0.00 96 1008.3
20260901104546 54 0 0.0 1.0 0.00 0.00 0.00 96 1008.5
20260901104026 54 0 1.0 1.0 0.00 0.00 0.00 96 1008.4
20260901103525 54 297 1.0 1.0 0.00 0.00 0.00 95 1008.3
20260901103055 54 297 0.0 1.0 0.00 0.00 0.00 96 1008.2
20260901102527 54 297 1.0 1.0 0.00 0.00 0.00 96 1008.3
20260901102026 54 314 1.0 1.0 0.00 0.00 0.00 95 1008.2
20260901101607 54 6 0.0 1.0 0.00 0.00 0.00 96 1008.3
20260901101022 54 0 0.0 0.0 0.00 0.00 0.00 96 1008.2
20260901100527 54 0 0.0 1.0 0.00 0.00 0.00 95 1008.2
20260901100049 55 0 0.0 1.0 0.00 0.00 0.00 95 1008.2
20260901095525 55 6 0.0 1.0 0.00 0.00 0.00 96 1008.1
20260901095024 55 6 0.0 1.0 0.00 0.00 0.00 96 1008.2
20260901094546 55 287 0.0 1.0 0.00 0.00 0.00 96 1008.2
20260901094025 55 287 1.0 2.0 0.00 0.00 0.00 96 1008.1
20260901093525 55 287 1.0 2.0 0.00 0.00 0.00 95 1008.2
20260901093050 55 287 1.0 2.0 0.00 0.00 0.00 95 1008.2
20260901092525 55 287 0.0 1.0 0.00 0.00 0.00 95 1008.2
20260901092030 55 287 1.0 1.0 0.00 0.00 0.00 95 1008.4
20260901091546 55 0 0.0 0.0 0.00 0.00 0.00 95 1008.4
20260901091025 55 0 0.0 0.0 0.00 0.00 0.00 95 1008.2
20260901090525 55 0 0.0 0.0 0.00 0.00 0.00 95 1008.3
20260901090045 55 0 0.0 1.0 0.00 0.00 0.00 95 1008.3
20260901085525 55 0 0.0 2.0 0.00 0.00 0.00 95 1008.3
20260901085024 55 289 0.0 2.0 0.00 0.00 0.00 96 1008.3
20260901084546 55 289 1.0 2.0 0.00 0.00 0.00 95 1008.4
20260901084026 55 283 1.0 2.0 0.00 0.00 0.00 95 1008.4
20260901083523 55 290 1.0 2.0 0.00 0.00 0.00 95 1008.4
20260901083051 55 290 1.0 2.0 0.00 0.00 0.00 95 1008.4
20260901082528 55 290 1.0 2.0 0.00 0.00 0.00 95 1008.3
20260901082023 56 293 0.0 1.0 0.00 0.00 0.00 95 1008.3
20260901081551 56 0 0.0 1.0 0.00 0.00 0.00 95 1008.3
20260901081027 56 288 0.0 1.0 0.00 0.00 0.00 95 1008.3
20260901080525 56 288 0.0 1.0 0.00 0.00 0.00 95 1008.4
20260901080056 56 288 0.0 1.0 0.00 0.00 0.00 95 1008.3
20260901075526 56 288 1.0 1.0 0.00 0.00 0.00 95 1008.3
20260901075027 56 288 1.0 2.0 0.00 0.00 0.00 95 1008.3
20260901074549 56 288 1.0 2.0 0.00 0.00 0.00 95 1008.3
20260901074024 57 293 0.0 2.0 0.00 0.00 0.00 95 1008.2
20260901073525 57 0 0.0 0.0 0.00 0.00 0.00 95 1008.3
20260901073047 57 0 0.0 0.0 0.00 0.00 0.00 95 1008.3
20260901072524 57 0 0.0 0.0 0.00 0.00 0.00 95 1008.2
20260901072026 57 0 0.0 0.0 0.00 0.00 0.00 95 1008.4
20260901071548 57 0 0.0 0.0 0.00 0.00 0.00 94 1008.3
20260901071025 57 0 0.0 0.0 0.00 0.00 0.00 94 1008.4
20260901070526 57 0 0.0 0.0 0.00 0.00 0.00 94 1008.6
20260901070047 57 0 0.0 0.0 0.00 0.00 0.00 94 1008.5
20260901065528 57 0 0.0 1.0 0.00 0.00 0.00 94 1008.5
20260901065025 57 0 0.0 1.0 0.00 0.00 0.00 93 1008.6
20260901064543 58 210 0.0 1.0 0.00 0.00 0.00 93 1008.5
20260901064024 58 0 0.0 1.0 0.00 0.00 0.00 93 1008.5
20260901063528 58 211 0.0 1.0 0.00 0.00 0.00 93 1008.4
20260901063058 58 211 0.0 1.0 0.00 0.00 0.00 92 1008.5
20260901062524 58 210 0.0 1.0 0.00 0.00 0.00 92 1008.4
20260901062025 59 210 1.0 1.0 0.00 0.00 0.00 92 1008.5
20260901061550 59 203 1.0 1.0 0.00 0.00 0.00 92 1008.4
20260901061029 59 0 0.0 0.0 0.00 0.00 0.00 91 1008.5
20260901060526 60 0 0.0 0.0 0.00 0.00 0.00 91 1008.5
20260901060047 60 0 0.0 0.0 0.00 0.00 0.00 91 1008.5
20260901055527 60 0 0.0 0.0 0.00 0.00 0.00 90 1008.5
20260901055031 61 0 0.0 1.0 0.00 0.00 0.00 90 1008.5
20260901054547 61 0 0.0 1.0 0.00 0.00 0.00 90 1008.6
20260901054054 61 167 0.0 1.0 0.00 0.00 0.00 90 1008.6
20260901053525 62 0 0.0 1.0 0.00 0.00 0.00 89 1008.6
20260901053114 62 178 0.0 2.0 0.00 0.00 0.00 89 1008.6
20260901052524 62 142 1.0 3.0 0.00 0.00 0.00 89 1008.5
20260901052026 62 205 1.0 3.0 0.00 0.00 0.00 89 1008.4
20260901051603 62 0 0.0 3.0 0.00 0.00 0.00 88 1008.5
20260901051025 62 0 0.0 5.0 0.00 0.00 0.00 88 1008.4
20260901050524 62 0 0.0 5.0 0.00 0.00 0.00 88 1008.3
20260901050048 63 292 1.0 4.0 0.00 0.00 0.00 89 1008.3
20260901045527 63 259 1.0 4.0 0.00 0.00 0.00 88 1008.4
20260901045027 63 298 1.0 4.0 0.00 0.00 0.00 88 1008.5
20260901044555 63 280 1.0 4.0 0.00 0.00 0.00 88 1008.4
20260901044026 63 285 2.0 5.0 0.00 0.00 0.00 88 1008.4
20260901043526 63 299 2.0 5.0 0.00 0.00 0.00 88 1008.3
20260901043057 63 300 3.0 6.0 0.00 0.00 0.00 88 1008.3
20260901042525 63 283 2.0 6.0 0.00 0.00 0.00 88 1008.3
20260901042025 63 288 3.0 6.0 0.00 0.00 0.00 88 1008.3
20260901041600 63 295 3.0 5.0 0.00 0.00 0.00 87 1008.5
20260901041027 63 299 2.0 4.0 0.00 0.00 0.00 87 1008.4
20260901040528 64 292 2.0 4.0 0.00 0.00 0.00 86 1008.5
20260901040047 64 297 0.0 4.0 0.00 0.00 0.00 86 1008.5
20260901035527 64 288 1.0 5.0 0.00 0.00 0.00 85 1008.5
20260901035026 64 285 1.0 5.0 0.00 0.00 0.00 85 1008.4
20260901034553 64 303 2.0 7.0 0.00 0.00 0.00 85 1008.3
20260901034025 64 297 4.0 7.0 0.00 0.00 0.00 84 1008.3
20260901033525 64 299 4.0 7.0 0.00 0.00 0.00 84 1008.2
20260901033049 64 300 4.0 7.0 0.00 0.00 0.00 83 1008.2
20260901032525 64 309 4.0 7.0 0.00 0.00 0.00 82 1008.3
20260901032026 65 298 4.0 7.0 0.00 0.00 0.00 81 1008.2
20260901031556 65 302 4.0 7.0 0.00 0.00 0.00 81 1008.2
20260901031027 65 283 4.0 8.0 0.00 0.00 0.00 80 1008.3
20260901030524 65 313 5.0 8.0 0.00 0.00 0.00 80 1008.3
20260901030048 65 335 5.0 8.0 0.00 0.00 0.00 80 1008.3
20260901025528 65 281 5.0 8.0 0.00 0.00 0.00 79 1008.4
20260901025029 65 317 4.0 7.0 0.00 0.00 0.00 79 1008.5
20260901024552 66 301 5.0 7.0 0.00 0.00 0.00 78 1008.5
20260901024025 66 286 5.0 8.0 0.00 0.00 0.00 77 1008.5
20260901023537 66 296 5.0 9.0 0.00 0.00 0.00 77 1008.4
20260901023047 66 306 5.0 9.0 0.00 0.00 0.00 76 1008.5
20260901022528 66 296 5.0 9.0 0.00 0.00 0.00 76 1008.6
20260901022030 67 291 7.0 9.0 0.00 0.00 0.00 74 1008.6
20260901021548 67 304 6.0 10.0 0.00 0.00 0.00 73 1008.7
20260901021027 67 295 7.0 10.0 0.00 0.00 0.00 71 1008.7
20260901020529 67 310 6.0 12.0 0.00 0.00 0.00 70 1008.7
20260901020056 68 274 8.0 12.0 0.00 0.00 0.00 69 1008.7
20260901015526 68 300 6.0 10.0 0.00 0.00 0.00 67 1008.8
20260901015025 68 304 6.0 10.0 0.00 0.00 0.00 67 1008.8
20260901014558 68 286 5.0 10.0 0.00 0.00 0.00 67 1008.9
20260901014025 68 295 6.0 10.0 0.00 0.00 0.00 67 1008.9
20260901013525 68 286 6.0 10.0 0.00 0.00 0.00 66 1008.8
20260901013049 68 308 6.0 10.0 0.00 0.00 0.00 67 1008.9
20260901012526 68 290 7.0 11.0 0.00 0.00 0.00 67 1009.0
20260901012029 69 314 6.0 11.0 0.00 0.00 0.00 68 1009.0
20260901011547 69 270 6.0 12.0 0.00 0.00 0.00 67 1009.0
20260901011030 69 305 6.0 12.0 0.00 0.00 0.00 67 1009.0
20260901010523 69 330 7.0 13.0 0.00 0.00 0.00 67 1009.1
20260901010051 69 288 8.0 13.0 0.00 0.00 0.00 67 1009.1
20260901005527 70 298 6.0 11.0 0.00 0.00 0.00 66 1009.2
20260901005025 69 303 5.0 11.0 0.00 0.00 0.00 68 1009.2
20260901004551 69 300 7.0 13.0 0.00 0.00 0.00 66 1009.1
20260901004024 69 288 8.0 13.0 0.00 0.00 0.00 67 1009.2
20260901003525 69 322 6.0 12.0 0.00 0.00 0.00 68 1009.3
20260901003045 69 288 7.0 12.0 0.00 0.00 0.00 70 1009.3
20260901002525 68 292 8.0 12.0 0.00 0.00 0.00 69 1009.4
20260901002026 68 286 7.0 12.0 0.00 0.00 0.00 69 1009.4
20260901001556 68 300 7.0 13.0 0.00 0.00 0.00 69 1009.4
20260901001025 68 281 7.0 13.0 0.00 0.00 0.00 69 1009.5
20260901000525 69 288 8.0 13.0 0.00 0.00 0.00 69 1009.6
20260901000051 69 290 7.0 13.0 0.00 0.00 0.00 68 1009.6
20260831235524 69 300 8.0 13.0 0.00 0.00 0.00 67 1009.6
20260831235025 69 297 8.0 13.0 0.00 0.00 0.00 68 1009.8
20260831234613 69 296 6.0 11.0 0.00 0.00 0.00 69 1009.8
20260831234026 69 325 7.0 11.0 0.00 0.00 0.00 68 1009.9
20260831233524 69 306 7.0 11.0 0.00 0.00 0.00 68 1010.0
20260831233054 69 298 6.0 11.0 0.00 0.00 0.00 68 1010.0
20260831232527 69 300 5.0 11.0 0.00 0.00 0.00 68 1010.0
20260831232025 69 278 6.0 11.0 0.00 0.00 0.00 69 1010.1
20260831231545 69 297 7.0 11.0 0.00 0.00 0.00 68 1010.2
20260831231026 70 266 6.0 11.0 0.00 0.00 0.00 68 1010.1
20260831230524 69 252 6.0 11.0 0.00 0.00 0.00 68 1010.2
20260831230054 69 282 7.0 11.0 0.00 0.00 0.00 69 1010.3
20260831225526 70 303 4.0 8.0 0.00 0.00 0.00 70 1010.3
20260831225026 70 300 4.0 12.0 0.00 0.00 0.00 69 1010.4
20260831224549 69 319 5.0 12.0 0.00 0.00 0.00 69 1010.3
20260831224025 69 290 6.0 11.0 0.00 0.00 0.00 70 1010.4
20260831223525 69 311 7.0 12.0 0.00 0.00 0.00 69 1010.6
20260831223047 69 275 8.0 12.0 0.00 0.00 0.00 69 1010.7
20260831222528 69 264 8.0 12.0 0.00 0.00 0.00 69 1010.7
20260831222025 69 281 7.0 11.0 0.00 0.00 0.00 69 1010.8
20260831221546 68 275 8.0 12.0 0.00 0.00 0.00 69 1010.8
20260831221028 68 272 7.0 13.0 0.00 0.00 0.00 70 1010.8
20260831220531 68 269 7.0 13.0 0.00 0.00 0.00 71 1011.0
20260831220053 68 262 7.0 15.0 0.00 0.00 0.00 70 1011.1
20260831215525 68 309 6.0 15.0 0.00 0.00 0.00 72 1011.2
20260831215030 68 296 9.0 14.0 0.00 0.00 0.00 71 1011.3
20260831214556 69 290 5.0 11.0 0.00 0.00 0.00 72 1011.4
20260831214024 68 288 5.0 11.0 0.00 0.00 0.00 74 1011.4
20260831213524 68 289 4.0 11.0 0.00 0.00 0.00 75 1011.5
20260831213046 68 294 6.0 12.0 0.00 0.00 0.00 75 1011.5
20260831212525 68 269 7.0 14.0 0.00 0.00 0.00 75 1011.5
20260831212025 67 285 7.0 14.0 0.00 0.00 0.00 75 1011.6
20260831211543 67 264 7.0 12.0 0.00 0.00 0.00 76 1011.6
20260831211027 67 297 6.0 11.0 0.00 0.00 0.00 76 1011.8
20260831210525 67 274 7.0 13.0 0.00 0.00 0.00 76 1011.8
20260831210048 67 304 8.0 13.0 0.00 0.00 0.00 77 1011.9
20260831205529 67 295 8.0 13.0 0.00 0.00 0.00 77 1011.9
20260831205026 67 311 8.0 13.0 0.00 0.00 0.00 77 1012.0
20260831204547 67 267 7.0 13.0 0.00 0.00 0.00 78 1012.0
20260831204029 67 293 7.0 13.0 0.00 0.00 0.00 77 1012.0
20260831203524 67 295 8.0 13.0 0.00 0.00 0.00 77 1012.2
20260831203047 67 271 6.0 12.0 0.00 0.00 0.00 77 1012.2
20260831202527 67 287 6.0 12.0 0.00 0.00 0.00 79 1012.3
20260831202026 67 297 6.0 13.0 0.00 0.00 0.00 78 1012.4
20260831201550 67 278 7.0 13.0 0.00 0.00 0.00 78 1012.4
20260831201028 67 283 6.0 10.0 0.00 0.00 0.00 79 1012.4
20260831200527 67 285 6.0 10.0 0.00 0.00 0.00 78 1012.5
20260831200048 66 299 6.0 11.0 0.00 0.00 0.00 79 1012.5
20260831195526 66 259 6.0 11.0 0.00 0.00 0.00 79 1012.5
20260831195025 66 271 6.0 11.0 0.00 0.00 0.00 78 1012.7
20260831194547 66 294 6.0 11.0 0.00 0.00 0.00 78 1012.7
20260831194030 66 283 7.0 11.0 0.00 0.00 0.00 77 1012.7
20260831193526 66 311 6.0 10.0 0.00 0.00 0.00 77 1012.9
20260831193044 66 296 6.0 10.0 0.00 0.00 0.00 77 1012.9
20260831192527 66 304 7.0 10.0 0.00 0.00 0.00 76 1013.0
20260831192029 66 302 5.0 10.0 0.00 0.00 0.00 76 1013.0
20260831191553 66 311 7.0 10.0 0.00 0.00 0.00 76 1013.0
20260831191026 66 311 5.0 9.0 0.00 0.00 0.00 75 1013.2
20260831190525 66 304 5.0 11.0 0.00 0.00 0.00 77 1013.2
20260831190050 66 297 6.0 11.0 0.00 0.00 0.00 75 1013.2
20260831185525 66 300 5.0 9.0 0.00 0.00 0.00 75 1013.2
20260831185027 66 289 5.0 8.0 0.00 0.00 0.00 75 1013.3
20260831184547 66 319 6.0 8.0 0.00 0.00 0.00 75 1013.4
20260831184025 66 282 3.0 9.0 0.00 0.00 0.00 76 1013.5
20260831183527 65 304 6.0 9.0 0.00 0.00 0.00 75 1013.6
20260831183046 65 309 4.0 8.0 0.00 0.00 0.00 75 1013.6
20260831182526 65 312 5.0 9.0 0.00 0.00 0.00 76 1013.6
20260831182027 65 292 5.0 9.0 0.00 0.00 0.00 76 1013.8
20260831181552 65 278 4.0 8.0 0.00 0.00 0.00 76 1013.9
20260831181026 65 301 2.0 9.0 0.00 0.00 0.00 76 1013.9
20260831180529 65 309 5.0 9.0 0.00 0.00 0.00 77 1013.9
20260831180050 65 326 5.0 8.0 0.00 0.00 0.00 75 1014.0
20260831175526 65 306 4.0 7.0 0.00 0.00 0.00 74 1014.1
20260831175029 66 315 3.0 7.0 0.00 0.00 0.00 73 1014.1
20260831174550 66 255 3.0 7.0 0.00 0.00 0.00 73 1014.1
20260831174027 66 276 1.0 5.0 0.00 0.00 0.00 78 1014.1
20260831173526 67 115 1.0 7.0 0.00 0.00 0.00 76 1014.2
20260831173050 66 288 1.0 7.0 0.00 0.00 0.00 73 1014.1
20260831172527 67 301 3.0 7.0 0.00 0.00 0.00 74 1014.3
20260831172027 67 141 2.0 5.0 0.00 0.00 0.00 78 1014.2
20260831171546 67 156 2.0 5.0 0.00 0.00 0.00 78 1014.3
20260831171027 66 255 2.0 5.0 0.00 0.00 0.00 79 1014.3
20260831170528 66 154 3.0 5.0 0.00 0.00 0.00 79 1014.1
20260831170121 66 141 2.0 5.0 0.00 0.00 0.00 79 1014.1
20260831165526 66 141 2.0 4.0 0.00 0.00 0.00 79 1014.1
20260831165026 66 147 1.0 4.0 0.00 0.00 0.00 80 1014.1
20260831164547 65 238 2.0 4.0 0.00 0.00 0.00 81 1014.2
20260831164024 64 148 2.0 3.0 0.00 0.00 0.00 80 1014.3
20260831163526 64 140 2.0 3.0 0.00 0.00 0.00 80 1014.3
20260831163049 64 130 2.0 4.0 0.00 0.00 0.00 80 1014.3
20260831162529 63 13 1.0 4.0 0.00 0.00 0.00 79 1014.3
20260831162027 63 12 1.0 5.0 0.00 0.00 0.00 80 1014.3
20260831161545 62 49 2.0 5.0 0.00 0.00 0.00 80 1014.4
20260831161028 62 4 3.0 5.0 0.00 0.00 0.00 81 1014.4
20260831160525 62 27 2.0 5.0 0.00 0.00 0.00 81 1014.3
20260831160056 62 335 2.0 5.0 0.00 0.00 0.00 80 1014.5
20260831155526 62 353 2.0 4.0 0.00 0.00 0.00 81 1014.5
20260831155023 62 30 2.0 5.0 0.00 0.00 0.00 82 1014.6
20260831154607 62 32 2.0 5.0 0.00 0.00 0.00 82 1014.6
20260831154029 62 47 2.0 5.0 0.00 0.00 0.00 83 1014.7
20260831153528 62 28 3.0 4.0 0.00 0.00 0.00 81 1014.6
20260831153047 63 0 0.0 1.0 0.00 0.00 0.00 84 1014.6
20260831152529 63 0 0.0 0.0 0.00 0.00 0.00 86 1014.6
20260831152026 63 0 0.0 0.0 0.00 0.00 0.00 87 1014.6
20260831151558 62 0 0.0 0.0 0.00 0.00 0.00 90 1014.6
20260831151025 61 0 0.0 0.0 0.00 0.00 0.00 91 1014.7
20260831150525 60 0 0.0 0.0 0.00 0.00 0.00 91 1014.6
20260831150054 60 0 0.0 0.0 0.00 0.00 0.00 93 1014.7
20260831145526 59 0 0.0 0.0 0.00 0.00 0.00 95 1014.6
20260831145028 58 0 0.0 0.0 0.00 0.00 0.00 96 1014.6
20260831144547 57 0 0.0 0.0 0.00 0.00 0.00 96 1014.6
20260831144025 55 0 0.0 0.0 0.00 0.00 0.00 96 1014.5
20260831143527 55 0 0.0 0.0 0.00 0.00 0.00 97 1014.5
20260831143050 54 0 0.0 0.0 0.00 0.00 0.00 96 1014.6
20260831142527 54 0 0.0 0.0 0.00 0.00 0.00 96 1014.5
20260831142027 53 0 0.0 0.0 0.00 0.00 0.00 97 1014.5
20260831141547 52 0 0.0 1.0 0.00 0.00 0.00 97 1014.6
20260831141025 52 0 0.0 1.0 0.00 0.00 0.00 96 1014.5
20260831140528 52 292 0.0 1.0 0.00 0.00 0.00 97 1014.5
20260831140050 52 0 0.0 1.0 0.00 0.00 0.00 97 1014.5
20260831135529 52 292 0.0 3.0 0.00 0.00 0.00 97 1014.5
20260831135031 51 290 1.0 3.0 0.00 0.00 0.00 96 1014.5
20260831134549 51 305 2.0 2.0 0.00 0.00 0.00 97 1014.5
20260831134025 51 311 0.0 0.0 0.00 0.00 0.00 96 1014.7
20260831133525 51 0 0.0 0.0 0.00 0.00 0.00 96 1014.6
20260831133048 51 0 0.0 0.0 0.00 0.00 0.00 97 1014.5
20260831132525 51 0 0.0 1.0 0.00 0.00 0.00 96 1014.6
20260831132028 51 0 0.0 1.0 0.00 0.00 0.00 96 1014.5
20260831131543 51 307 0.0 1.0 0.00 0.00 0.00 96 1014.7
20260831131028 51 307 1.0 2.0 0.00 0.00 0.00 96 1014.6
20260831130523 51 307 1.0 2.0 0.00 0.00 0.00 96 1014.7
20260831130052 51 309 1.0 2.0 0.00 0.00 0.00 96 1014.7
20260831125526 51 311 1.0 1.0 0.00 0.00 0.00 96 1014.7
20260831125026 51 302 1.0 1.0 0.00 0.00 0.00 96 1014.8
20260831124548 51 294 0.0 2.0 0.00 0.00 0.00 96 1014.9
20260831124026 51 307 1.0 2.0 0.00 0.00 0.00 96 1015.0
20260831123528 51 0 0.0 0.0 0.00 0.00 0.00 96 1015.1
20260831123047 51 0 0.0 0.0 0.00 0.00 0.00 96 1015.1
20260831122527 51 0 0.0 0.0 0.00 0.00 0.00 96 1015.0
20260831122027 51 0 0.0 0.0 0.00 0.00 0.00 95 1015.0
20260831121558 51 0 0.0 0.0 0.00 0.00 0.00 96 1015.1
20260831121026 51 0 0.0 0.0 0.00 0.00 0.00 96 1015.1
20260831120528 51 0 0.0 0.0 0.00 0.00 0.00 96 1015.1
20260831120054 51 0 0.0 0.0 0.00 0.00 0.00 96 1015.1
20260831115525 51 0 0.0 0.0 0.00 0.00 0.00 96 1015.0
20260831115025 51 0 0.0 0.0 0.00 0.00 0.00 96 1015.1
20260831114552 51 0 0.0 0.0 0.00 0.00 0.00 96 1015.3
20260831114025 51 0 0.0 0.0 0.00 0.00 0.00 96 1015.2
20260831113533 51 0 0.0 0.0 0.00 0.00 0.00 96 1015.2
20260831113048 51 0 0.0 0.0 0.00 0.00 0.00 95 1015.4
20260831112525 51 0 0.0 0.0 0.00 0.00 0.00 95 1015.4
20260831112026 51 0 0.0 0.0 0.00 0.00 0.00 96 1015.4
20260831111557 52 0 0.0 0.0 0.00 0.00 0.00 95 1015.4